Weather History for Moose Lake, MN

Change the Weather History Date:

Friday, February 22, 2013

  Actual Average Record
Temperature  
Mean Temperature 26 °F -  
Max Temperature 30 °F 32 °F 52 °F (1961)
Min Temperature 21 °F 10 °F -29 °F (1972)
Degree Days  
Heating Degree Days 40    
Moisture  
Dew Point 17 °F    
Average Humidity 71    
Maximum Humidity 80    
Minimum Humidity 60    
Precipitation  
Precipitation 0.03 in - - ()
Sea Level Pressure  
Sea Level Pressure 29.91 in    
Wind  
Wind Speed 0 mph (ENE)    
Max Wind Speed 8 mph    
Max Gust Speed -    
Visibility 6 miles    
Events Snow    
Averages and records for this station are not official NWS values.
T = Trace of Precipitation, MM = Missing Value Source: NWS Daily Summary

Daily Weather History Graph

Daily Weather History Graph

Search for Another Location

Airport:

Trip Planner

Search our weather history database for the weather conditions in past years. The results will help you decide how hot, cold, wet, or windy it might be!

Date:

Astronomy

Feb. 22, 2013 Rise Set
Actual Time 7:02 AM CST 5:47 PM CST
Civil Twilight 6:31 AM CST 6:18 PM CST
Nautical Twilight 5:57 AM CST 6:53 PM CST
Astronomical Twilight 5:22 AM CST 7:27 PM CST
Moon 2:52 PM CST (2/22) 4:55 AM CST (2/22)
Length of Visible Light 11h 46m
Length of Day
10h 45m
Waxing Gibbous, 90% of the Moon is Illuminated
Feb 22
Waxing Gibbous
Feb 25
Full
Mar 4
Last Quarter
Mar 11
New
Mar 19
First Quarter

Hourly Weather History & Observations

Time (CST) Temp. Windchill Dew Point Humidity Pressure Visibility Wind Dir Wind Speed Gust Speed Precip Events Conditions
12:12 AM 23.0 °F - 17.6 °F 80% 30.11 in 10.0 mi Calm Calm - N/A   Overcast
12:32 AM 23.0 °F - 17.6 °F 80% 30.12 in 10.0 mi Calm Calm - N/A   Overcast
12:52 AM 23.0 °F 13.9 °F 17.6 °F 80% 30.11 in 10.0 mi ENE 8.1 mph - N/A   Overcast
1:12 AM 23.0 °F - 17.6 °F 80% 30.10 in 10.0 mi Calm Calm - N/A   Overcast
1:32 AM 23.0 °F - 15.8 °F 74% 30.09 in 10.0 mi Calm Calm - N/A   Overcast
1:52 AM 23.0 °F - 14.0 °F 68% 30.08 in 10.0 mi Calm Calm - N/A   Overcast
2:12 AM 21.2 °F - 14.0 °F 74% 30.08 in 10.0 mi Calm Calm - N/A   Overcast
2:32 AM 21.2 °F - 15.8 °F 80% 30.06 in 10.0 mi Calm Calm - N/A   Overcast
2:52 AM 21.2 °F - 15.8 °F 80% 30.05 in 10.0 mi Calm Calm - N/A   Overcast
3:12 AM 21.2 °F - 15.8 °F 80% 30.04 in 10.0 mi Calm Calm - N/A   Overcast
3:32 AM 21.2 °F - 15.8 °F 80% 30.03 in 10.0 mi Calm Calm - N/A   Overcast
3:52 AM 21.2 °F - 15.8 °F 80% 30.01 in 10.0 mi Calm Calm - N/A   Overcast
4:12 AM 21.2 °F - 14.0 °F 74% 30.00 in 10.0 mi Calm Calm - N/A   Overcast
4:32 AM 21.2 °F - 14.0 °F 74% 30.00 in 10.0 mi Calm Calm - N/A   Overcast
4:52 AM 21.2 °F - 14.0 °F 74% 29.99 in 10.0 mi Calm Calm - N/A   Overcast
5:12 AM 21.2 °F - 14.0 °F 74% 29.98 in 4.0 mi Calm Calm - N/A Snow Light Snow
5:32 AM 21.2 °F - 14.0 °F 74% 29.98 in 2.0 mi Calm Calm - N/A Snow Light Snow
5:52 AM 21.2 °F - 14.0 °F 74% 29.97 in 1.5 mi Calm Calm - N/A Snow Light Snow
6:12 AM 23.0 °F - 15.8 °F 74% 29.96 in 2.0 mi Calm Calm - N/A Snow Light Snow
6:32 AM 23.0 °F - 15.8 °F 74% 29.96 in 1.5 mi Calm Calm - N/A Snow Light Snow
6:52 AM 23.0 °F - 15.8 °F 74% 29.96 in 1.5 mi Calm Calm - N/A Snow Light Snow
7:12 AM 23.0 °F - 15.8 °F 74% 29.95 in 1.5 mi Calm Calm - N/A Snow Light Snow
7:32 AM 23.0 °F - 17.6 °F 80% 29.95 in 0.5 mi Calm Calm - 0.01 in Snow Snow
7:52 AM 23.0 °F - 17.6 °F 80% 29.95 in 0.8 mi Calm Calm - 0.01 in Snow Light Snow
8:12 AM 23.0 °F - 17.6 °F 80% 29.94 in 0.5 mi Calm Calm - N/A Snow Light Snow
8:32 AM 24.8 °F - 17.6 °F 74% 29.94 in 0.8 mi Calm Calm - N/A Snow Light Snow
8:52 AM 24.8 °F - 17.6 °F 74% 29.93 in 0.8 mi Calm Calm - N/A Snow Light Snow
9:12 AM 26.6 °F - 17.6 °F 69% 29.93 in 1.0 mi Calm Calm - N/A Snow Light Snow
9:32 AM 26.6 °F - 17.6 °F 69% 29.92 in 1.8 mi Calm Calm - N/A Snow Light Snow
9:52 AM 26.6 °F - 17.6 °F 69% 29.92 in 2.0 mi Calm Calm - N/A Snow Light Snow
10:32 AM 28.4 °F - 17.6 °F 64% 29.91 in 2.0 mi Calm Calm - N/A Snow Light Snow
10:52 AM 28.4 °F - 17.6 °F 64% 29.90 in 1.8 mi Calm Calm - 0.01 in Snow Light Snow
11:12 AM 28.4 °F - 17.6 °F 64% 29.90 in 1.2 mi Calm Calm - N/A Snow Light Snow
11:32 AM 30.2 °F - 17.6 °F 60% 29.89 in 3.0 mi Calm Calm - N/A Snow Light Snow
11:52 AM 30.2 °F - 17.6 °F 60% 29.89 in 3.0 mi Calm Calm - 0.01 in Snow Light Snow
12:12 PM 30.2 °F - 17.6 °F 60% 29.88 in 2.5 mi Calm Calm - N/A Snow Light Snow
12:32 PM 30.2 °F - 17.6 °F 60% 29.88 in 1.8 mi Calm Calm - N/A Snow Light Snow
12:52 PM 30.2 °F - 17.6 °F 60% 29.87 in 2.0 mi Calm Calm - N/A Snow Light Snow
1:12 PM 30.2 °F - 17.6 °F 60% 29.86 in 1.2 mi Calm Calm - N/A Snow Light Snow
1:32 PM 30.2 °F - 17.6 °F 60% 29.86 in 2.0 mi Calm Calm - N/A Snow Light Snow
1:52 PM 30.2 °F - 17.6 °F 60% 29.85 in 2.5 mi Calm Calm - N/A Snow Light Snow
2:12 PM 30.2 °F - 17.6 °F 60% 29.84 in 4.0 mi Calm Calm - N/A Snow Light Snow
2:32 PM 28.4 °F - 17.6 °F 64% 29.84 in 2.0 mi Calm Calm - N/A Snow Light Snow
2:52 PM 28.4 °F - 19.4 °F 69% 29.84 in 4.0 mi Calm Calm - N/A Snow Light Snow
3:12 PM 30.2 °F - 17.6 °F 60% 29.83 in 10.0 mi Calm Calm - N/A   Overcast
3:32 PM 30.2 °F - 17.6 °F 60% 29.83 in 10.0 mi Calm Calm - N/A   Overcast
3:52 PM 28.4 °F - 17.6 °F 64% 29.82 in 10.0 mi Calm Calm - N/A   Overcast
4:12 PM 28.4 °F - 19.4 °F 69% 29.83 in 10.0 mi Calm Calm - N/A   Overcast
4:32 PM 28.4 °F - 17.6 °F 64% 29.83 in 10.0 mi Calm Calm - N/A   Overcast
4:52 PM 28.4 °F - 17.6 °F 64% 29.83 in 10.0 mi Calm Calm - N/A   Overcast
5:12 PM 28.4 °F - 17.6 °F 64% 29.84 in 10.0 mi Calm Calm - N/A   Overcast
5:32 PM 28.4 °F - 17.6 °F 64% 29.84 in 10.0 mi Calm Calm - N/A   Overcast
5:52 PM 28.4 °F - 17.6 °F 64% 29.84 in 3.0 mi Calm Calm - N/A Snow Light Snow
6:12 PM 28.4 °F - 19.4 °F 69% 29.84 in 3.0 mi Calm Calm - N/A Snow Light Snow
6:32 PM 28.4 °F - 19.4 °F 69% 29.84 in 3.0 mi Calm Calm - N/A Snow Light Snow
6:52 PM 26.6 °F - 19.4 °F 74% 29.84 in 4.0 mi Calm Calm - N/A Snow Light Snow
7:12 PM 26.6 °F - 19.4 °F 74% 29.84 in 4.0 mi Calm Calm - N/A Snow Light Snow
7:32 PM 26.6 °F - 19.4 °F 74% 29.84 in 3.0 mi Calm Calm - N/A Snow Light Snow
7:52 PM 26.6 °F - 19.4 °F 74% 29.84 in 4.0 mi Calm Calm - N/A Snow Light Snow
8:12 PM 26.6 °F - 19.4 °F 74% 29.83 in 3.0 mi Calm Calm - N/A Snow Light Snow
8:32 PM 26.6 °F - 19.4 °F 74% 29.83 in 4.0 mi Calm Calm - N/A Snow Light Snow
8:52 PM 26.6 °F - 19.4 °F 74% 29.83 in 7.0 mi Calm Calm - N/A Snow Light Snow
9:12 PM 26.6 °F - 19.4 °F 74% 29.82 in 7.0 mi Calm Calm - N/A Snow Light Snow
9:32 PM 26.6 °F - 19.4 °F 74% 29.82 in 4.0 mi Calm Calm - N/A Snow Light Snow
9:52 PM 26.6 °F - 19.4 °F 74% 29.81 in 7.0 mi Calm Calm - N/A Snow Light Snow
10:12 PM 26.6 °F - 19.4 °F 74% 29.81 in 7.0 mi Calm Calm - N/A Snow Light Snow
10:32 PM 26.6 °F - 19.4 °F 74% 29.81 in 10.0 mi Calm Calm - N/A   Overcast
10:52 PM 26.6 °F - 19.4 °F 74% 29.81 in 10.0 mi Calm Calm - N/A   Overcast
11:12 PM 26.6 °F - 19.4 °F 74% 29.81 in 10.0 mi Calm Calm - N/A   Overcast
11:32 PM 26.6 °F - 19.4 °F 74% 29.81 in 10.0 mi Calm Calm - N/A   Overcast
11:52 PM 26.6 °F - 19.4 °F 74% 29.80 in 10.0 mi Calm Calm - N/A   Overcast